Vertical_Velocity
3 4 5 9 5 4 3 2 1 0 1 -3 -0 5 0 -1 -2 2 -3 3 7 1
2 5 8 8 6 8 3 3 -1 -1 3 1 -2 5 4 2 -3 4 -1 1 3 -1
2 1 4 -4 -10 16 12 5 -2 -1 2 3 7 1 4 2 0 -2 -2 4 14 3
1 0 4 1 -3 4 17 11 12 -0 -3 6 3 4 2 2 5 -2 1 -0 23 8
-2 -0 -1 4 7 -2 10 22 15 18 -1 14 -3 0 -3 0 5 1 -1 5 12 6
-3 1 -3 -0 5 2 10 10 9 15 6 20 13 -2 -1 3 4 5 2 1 2 4
0 -0 -1 -5 3 1 -2 3 3 13 -0 2 5 3 12 -1 2 6 2 8 0 5
-0 1 1 -1 2 5 7 2 18 17 3 -1 17 16 6 5 -1 3 2 -1 0 2
-2 2 -0 0 -6 2 8 1 3 15 17 4 16 18 11 -0 -2 -1 2 3 6 3
-3 0 1 3 0 -6 -0 -6 4 16 17 8 18 1 4 16 10 4 -8 3 1 -0
-3 -8 -3 1 -4 -6 -2 -4 -1 -1 26 16 17 8 17 17 6 2 1 2 2 2
-2 -4 3 5 1 2 -6 -3 9 14 2 12 11 10 10 15 16 2 12 7 2 4
-1 2 2 -2 -1 2 -6 -9 -3 -4 2 -4 8 4 13 14 4 10 11 16 1 8
-0 -3 -2 -3 -3 -5 -1 -5 -4 -2 3 2 12 6 13 14 15 8 14 0 2 0
Height
5477 5490 5502 5518 5532 5546 5564 5581 5594 5607 5620 5631 5641 5652 5661 5669 5679 5688 5694 5702 5709 5717
5460 5471 5482 5497 5511 5526 5540 5558 5574 5589 5603 5614 5624 5635 5646 5655 5666 5675 5682 5690 5697 5706
5445 5452 5463 5476 5490 5504 5519 5536 5553 5570 5583 5595 5608 5619 5628 5640 5652 5662 5670 5676 5684 5692
5435 5437 5447 5459 5473 5485 5499 5514 5533 5549 5565 5576 5588 5601 5612 5624 5636 5648 5656 5666 5672 5680
5425 5425 5431 5442 5454 5468 5478 5494 5512 5529 5546 5564 5573 5586 5598 5608 5620 5633 5643 5650 5659 5667
5412 5414 5417 5425 5437 5449 5463 5474 5491 5509 5527 5544 5554 5571 5581 5592 5604 5617 5627 5636 5646 5654
5402 5403 5406 5412 5422 5433 5448 5461 5474 5491 5509 5524 5539 5555 5565 5574 5587 5599 5611 5622 5631 5640
5392 5392 5395 5400 5409 5420 5433 5446 5453 5470 5490 5508 5522 5536 5547 5560 5573 5583 5593 5604 5616 5625
5383 5383 5385 5389 5396 5407 5418 5433 5443 5453 5472 5490 5505 5518 5534 5544 5555 5567 5577 5587 5602 5611
5375 5373 5376 5380 5386 5395 5407 5422 5432 5440 5454 5471 5488 5505 5517 5529 5540 5552 5561 5574 5584 5594
5366 5366 5367 5371 5377 5383 5393 5406 5420 5431 5439 5454 5469 5487 5500 5513 5525 5535 5545 5557 5569 5580
5357 5357 5358 5362 5367 5372 5381 5395 5405 5416 5426 5437 5453 5469 5482 5498 5509 5521 5530 5542 5554 5566
5349 5349 5349 5352 5356 5360 5367 5379 5392 5404 5415 5427 5439 5451 5465 5478 5493 5507 5517 5528 5538 5550
5341 5342 5343 5346 5349 5353 5361 5368 5380 5391 5403 5413 5424 5435 5449 5464 5477 5492 5503 5515 5525 5536